EW3804 Weather Reports


time (UTC)temp
F
wind
direction
speed
knots
gust
knots
rain 1hr
in
rain 24hr
in
rain mn
in
humidity
%
barometer
mb
20260831011600 92 119 0.0 4.3 0.00 0.00 0.00 42 1004.8
20260831010114 93 134 2.6 6.1 0.00 0.00 0.00 41 1004.7
20260831004602 94 126 2.6 7.0 0.00 0.00 0.00 40 1004.7
20260831003057 95 129 5.2 10.4 0.00 0.00 0.00 38 1004.5
20260831001556 96 127 6.1 11.3 0.00 0.00 0.00 38 1004.6
20260831000104 97 106 5.2 9.6 0.00 0.00 0.00 36 1004.6
20260830234601 97 129 5.2 11.3 0.00 0.00 0.00 35 1004.7
20260830233054 98 117 4.3 11.3 0.00 0.00 0.00 35 1004.6
20260830231555 98 152 4.3 10.4 0.00 0.00 0.00 36 1004.8
20260830230054 97 117 3.5 9.6 0.00 0.00 0.00 36 1004.8
20260830224552 97 127 3.5 11.3 0.00 0.00 0.00 36 1004.8
20260830223051 97 135 6.1 11.3 0.00 0.00 0.00 37 1004.9
20260830221550 99 134 4.3 13.0 0.00 0.00 0.00 33 1004.9
20260830220050 99 143 3.5 9.6 0.00 0.00 0.00 34 1005.0
20260830214548 98 146 3.5 9.6 0.00 0.00 0.00 33 1005.0
20260830213101 99 97 5.2 10.4 0.00 0.00 0.00 31 1005.2
20260830211543 98 139 3.5 7.8 0.00 0.00 0.00 33 1005.4
20260830210042 98 128 3.5 9.6 0.00 0.00 0.00 35 1005.5
20260830204543 98 111 5.2 11.3 0.00 0.00 0.00 33 1005.8
20260830203039 99 158 7.0 11.3 0.00 0.00 0.00 33 1006.0
20260830201537 98 210 3.5 11.3 0.00 0.00 0.00 35 1006.1
20260830200035 98 226 4.3 14.8 0.00 0.00 0.00 34 1006.3
20260830194535 98 165 5.2 11.3 0.00 0.00 0.00 34 1006.5
20260830193034 98 155 6.1 11.3 0.00 0.00 0.00 37 1006.8
20260830191533 98 146 4.3 7.8 0.00 0.00 0.00 38 1007.0
20260830190025 96 117 4.3 11.3 0.00 0.00 0.00 39 1007.3
20260830184535 97 160 2.6 10.4 0.00 0.00 0.00 38 1007.4
20260830183022 97 113 3.5 11.3 0.00 0.00 0.00 41 1007.6
20260830181520 96 175 5.2 12.2 0.00 0.00 0.00 40 1007.9
20260830180017 95 139 7.8 13.0 0.00 0.00 0.00 43 1008.2
20260830174517 94 132 4.3 12.2 0.00 0.00 0.00 45 1008.4
20260830173012 94 153 5.2 10.4 0.00 0.00 0.00 45 1008.7
20260830171510 93 139 5.2 8.7 0.00 0.00 0.00 47 1009.0
20260830170006 93 191 4.3 8.7 0.00 0.00 0.00 50 1009.1
20260830164503 91 180 5.2 10.4 0.00 0.00 0.00 51 1009.4
20260830163002 91 174 4.3 9.6 0.00 0.00 0.00 52 1009.5
20260830161619 90 204 3.5 9.6 0.00 0.00 0.00 55 1009.5
20260830160055 89 131 5.2 11.3 0.00 0.00 0.00 56 1009.5
20260830154552 88 207 2.6 8.7 0.00 0.00 0.00 60 1009.4
20260830153051 88 216 3.5 7.8 0.00 0.00 0.00 61 1009.4
20260830151548 86 165 3.5 8.7 0.00 0.00 0.00 64 1009.4
20260830150111 85 162 3.5 7.8 0.00 0.00 0.00 66 1009.3
20260830144546 85 187 4.3 8.7 0.00 0.00 0.00 67 1009.4
20260830143045 84 181 4.3 7.8 0.00 0.00 0.00 69 1009.4
20260830141541 83 166 2.6 6.1 0.00 0.00 0.00 71 1009.2
20260830140041 82 193 3.5 7.0 0.00 0.00 0.00 74 1009.2
20260830134543 80 142 1.7 4.3 0.00 0.00 0.00 77 1009.1
20260830133045 79 134 2.6 4.3 0.00 0.00 0.00 79 1008.9
20260830131536 78 137 0.9 3.5 0.00 0.00 0.00 81 1008.8
20260830130035 77 141 0.9 3.5 0.00 0.00 0.00 82 1008.7
20260830124530 0 0.0 0.0 0.00 0.00 0.00 1008.6
20260830123026 0 0.0 0.0 0.00 0.00 0.00 1008.5
20260830121521 0 0.0 0.0 0.00 0.00 0.00 1008.2
20260830120021 0 0.0 0.0 0.00 0.00 0.00 1008.2
20260830114513 0 0.0 0.0 0.00 0.00 0.00 1007.9
20260830113011 0 0.0 0.0 0.00 0.00 0.00 1007.7
20260830111503 0 0.0 0.0 0.00 0.00 0.00 1007.6
20260830110101 0 0.0 0.0 0.00 0.00 0.00 1007.5
20260830104554 0 0.0 0.0 0.00 0.00 0.00 1007.4
20260830103051 0 0.0 0.0 0.00 0.00 0.00 1007.5
20260830101549 0 0.0 0.0 0.00 0.00 0.00 1007.4
20260830100041 0 0.0 0.0 0.00 0.00 0.00 1007.4
20260830094537 78 150 0.0 1.7 0.00 0.00 0.00 78 1007.3
20260830093035 79 179 0.0 3.5 0.00 0.00 0.00 79 1007.3
20260830091533 80 211 2.6 5.2 0.00 0.00 0.00 78 1007.3
20260830090051 80 193 2.6 7.8 0.00 0.00 0.00 77 1007.2
20260830084529 81 187 3.5 7.0 0.00 0.00 0.00 76 1007.2
20260830083038 81 168 3.5 7.8 0.00 0.00 0.00 75 1007.3
20260830081525 82 141 3.5 7.0 0.00 0.00 0.00 75 1007.2
20260830080022 82 165 4.3 10.4 0.00 0.00 0.00 74 1007.2
20260830074520 82 175 4.3 8.7 0.00 0.00 0.00 74 1007.4
20260830073019 82 182 3.5 7.8 0.00 0.00 0.00 73 1007.5
20260830071519 83 136 2.6 5.2 0.00 0.00 0.00 72 1007.3
20260830070016 83 147 3.5 8.7 0.00 0.00 0.00 71 1007.4
20260830064514 84 174 2.6 8.7 0.00 0.00 0.00 70 1007.4
20260830063012 84 126 2.6 4.3 0.00 0.00 0.00 68 1007.5
20260830061511 84 139 3.5 10.4 0.00 0.00 0.00 66 1007.5
20260830060008 85 170 4.3 7.8 0.00 0.00 0.00 65 1007.5
20260830054504 85 188 3.5 7.0 0.00 0.00 0.00 64 1007.4
20260830053003 85 170 2.6 6.1 0.00 0.00 0.00 61 1007.3
20260830051559 85 165 3.5 7.8 0.00 0.00 0.00 58 1007.3
20260830050057 86 175 3.5 8.7 0.00 0.00 0.00 57 1007.3
20260830044612 86 149 2.6 5.2 0.00 0.00 0.00 55 1007.4
20260830043057 86 144 1.7 4.3 0.00 0.00 0.00 55 1007.4
20260830041635 86 145 1.7 4.3 0.00 0.00 0.00 55 1007.5
20260830040100 86 144 2.6 4.3 0.00 0.00 0.00 54 1007.3
20260830034600 86 143 1.7 4.3 0.00 0.00 0.00 54 1007.3
20260830033054 87 143 0.9 4.3 0.00 0.00 0.00 53 1007.3
20260830031553 87 143 1.7 3.5 0.00 0.00 0.00 53 1007.2
20260830030131 87 143 1.7 3.5 0.00 0.00 0.00 52 1007.1
20260830024553 87 143 0.9 3.5 0.00 0.00 0.00 52 1006.9
20260830023052 88 143 0.0 2.6 0.00 0.00 0.00 50 1006.7
20260830021551 89 143 0.9 3.5 0.00 0.00 0.00 49 1006.5
20260830020052 90 143 0.0 5.2 0.00 0.00 0.00 47 1006.3
20260830014607 91 143 1.7 4.3 0.00 0.00 0.00 46 1006.2
20260830013102 92 143 1.7 4.3 0.00 0.00 0.00 45 1006.0